• In Deutschland
  • Länderverzeichnis
  • Für 7 Tage
  • Wassertemperatur
  • Satellitenkarten
  • Wetterkarte
  • Widgets
  • user-avatar
    Anmelden

    Stündliche Wetter Bayrischzell

    Heute, 24 Oktober, Dienstag

    Zeit Temperatur Niederschläge Wind Luftdruck Luftfeuchtigkeit
    00:00 +1°C° 0,6 mm 2 m/S 656 mmHg 96%
    01:00 +2°C° 0 mm 2 m/S 657 mmHg 96%
    02:00 +2°C° 0,6 mm 2 m/S 657 mmHg 96%
    03:00 +2°C° 0,6 mm 2 m/S 657 mmHg 96%
    04:00 +2°C° 0,6 mm 2 m/S 657 mmHg 96%
    05:00 +2°C° 0,2 mm 2 m/S 657 mmHg 96%
    06:00 +2°C° 0,2 mm 2 m/S 658 mmHg 96%
    07:00 +2°C° 0,2 mm 2 m/S 658 mmHg 96%
    08:00 +3°C° 0,1 mm 2 m/S 658 mmHg 93%
    09:00 +4°C° 0,1 mm 2 m/S 658 mmHg 90%
    10:00 +5°C° 0,1 mm 2 m/S 658 mmHg 87%
    11:00 +6°C° 0,1 mm 2 m/S 659 mmHg 84%
    12:00 +8°C° 0,1 mm 1 m/S 659 mmHg 80%
    13:00 +9°C° 0,1 mm 1 m/S 659 mmHg 76%
    14:00 +8°C° 0 mm 1 m/S 659 mmHg 78%
    15:00 +8°C° 0 mm 1 m/S 659 mmHg 79%
    16:00 +8°C° 0 mm 1 m/S 658 mmHg 81%
    17:00 +7°C° 0 mm 1 m/S 658 mmHg 83%
    18:00 +5°C° 0 mm 1 m/S 659 mmHg 85%
    19:00 +3°C° 0 mm 2 m/S 659 mmHg 87%
    20:00 +2°C° 0 mm 2 m/S 659 mmHg 85%
    21:00 +2°C° 0 mm 2 m/S 659 mmHg 83%
    22:00 +2°C° 0 mm 2 m/S 659 mmHg 81%
    23:00 +2°C° 0 mm 2 m/S 659 mmHg 80%

    Morgen, 25 Oktober, Mittwoch

    Zeit Temperatur Niederschläge Wind Luftdruck Luftfeuchtigkeit
    00:00 +2°C° 0 mm 2 m/S 659 mmHg 79%
    01:00 +2°C° 0 mm 2 m/S 659 mmHg 78%
    02:00 +2°C° 0 mm 2 m/S 659 mmHg 77%
    03:00 +2°C° 0 mm 2 m/S 658 mmHg 77%
    04:00 +3°C° 0 mm 2 m/S 658 mmHg 77%
    05:00 +3°C° 0 mm 2 m/S 658 mmHg 76%
    06:00 +3°C° 0 mm 2 m/S 658 mmHg 76%
    07:00 +3°C° 0 mm 2 m/S 658 mmHg 76%
    08:00 +7°C° 0 mm 1 m/S 659 mmHg 72%
    09:00 +9°C° 0 mm 1 m/S 660 mmHg 69%
    10:00 +11°C° 0 mm 1 m/S 661 mmHg 66%
    11:00 +12°C° 0 mm 1 m/S 661 mmHg 64%
    12:00 +14°C° 0 mm 1 m/S 661 mmHg 62%
    13:00 +15°C° 0 mm 1 m/S 661 mmHg 60%
    14:00 +13°C° 0 mm 0 m/S 661 mmHg 65%
    15:00 +12°C° 0 mm 0 m/S 660 mmHg 70%
    16:00 +11°C° 0 mm 0 m/S 660 mmHg 75%
    17:00 +10°C° 0 mm 1 m/S 660 mmHg 79%
    18:00 +9°C° 0 mm 1 m/S 660 mmHg 82%
    19:00 +7°C° 0 mm 1 m/S 660 mmHg 85%
    20:00 +7°C° 0 mm 1 m/S 660 mmHg 84%
    21:00 +7°C° 0 mm 1 m/S 660 mmHg 83%
    22:00 +6°C° 0 mm 1 m/S 660 mmHg 82%
    23:00 +6°C° 0 mm 1 m/S 660 mmHg 80%

    übermorgen, 26 Oktober, Donnerstag

    Zeit Temperatur Niederschläge Wind Luftdruck Luftfeuchtigkeit
    00:00 +6°C° 0 mm 1 m/S 660 mmHg 79%
    01:00 +6°C° 0 mm 1 m/S 660 mmHg 77%
    02:00 +6°C° 0 mm 1 m/S 660 mmHg 75%
    03:00 +6°C° 0 mm 1 m/S 660 mmHg 74%
    04:00 +6°C° 0 mm 1 m/S 660 mmHg 73%
    05:00 +6°C° 0 mm 1 m/S 660 mmHg 72%
    06:00 +6°C° 0 mm 1 m/S 660 mmHg 70%
    07:00 +6°C° 0 mm 1 m/S 660 mmHg 69%
    08:00 +9°C° 0 mm 1 m/S 660 mmHg 65%
    09:00 +11°C° 0 mm 1 m/S 661 mmHg 62%
    10:00 +13°C° 0 mm 0 m/S 662 mmHg 58%
    11:00 +14°C° 0 mm 1 m/S 662 mmHg 56%
    12:00 +15°C° 0 mm 1 m/S 662 mmHg 54%
    13:00 +16°C° 0 mm 1 m/S 662 mmHg 53%
    14:00 +15°C° 0 mm 1 m/S 661 mmHg 60%
    15:00 +14°C° 0 mm 1 m/S 661 mmHg 67%
    16:00 +13°C° 0 mm 1 m/S 661 mmHg 73%
    17:00 +11°C° 0 mm 1 m/S 660 mmHg 77%
    18:00 +10°C° 0 mm 1 m/S 660 mmHg 81%
    19:00 +8°C° 0 mm 1 m/S 659 mmHg 85%
    20:00 +8°C° 0 mm 1 m/S 659 mmHg 84%
    21:00 +6°C° 0 mm 2 m/S 659 mmHg 84%
    22:00 +6°C° 0 mm 2 m/S 659 mmHg 83%
    23:00 +6°C° 0 mm 2 m/S 659 mmHg 81%

    27 Oktober, Freitag

    Zeit Temperatur Niederschläge Wind Luftdruck Luftfeuchtigkeit
    00:00 +6°C° 0 mm 2 m/S 659 mmHg 79%
    01:00 +6°C° 0 mm 2 m/S 658 mmHg 77%
    02:00 +6°C° 0 mm 2 m/S 658 mmHg 75%
    03:00 +5°C° 0 mm 2 m/S 658 mmHg 73%
    04:00 +5°C° 0 mm 2 m/S 657 mmHg 72%
    05:00 +5°C° 0 mm 2 m/S 657 mmHg 71%
    06:00 +5°C° 0 mm 2 m/S 657 mmHg 69%
    07:00 +5°C° 0 mm 2 m/S 657 mmHg 68%
    08:00 +7°C° 0 mm 2 m/S 657 mmHg 66%
    09:00 +9°C° 0 mm 2 m/S 657 mmHg 63%
    10:00 +11°C° 0 mm 3 m/S 657 mmHg 60%
    11:00 +12°C° 0 mm 4 m/S 657 mmHg 61%
    12:00 +12°C° 0 mm 4 m/S 657 mmHg 61%
    13:00 +13°C° 0 mm 5 m/S 656 mmHg 62%
    14:00 +10°C° 0,7 mm 5 m/S 656 mmHg 71%
    15:00 +10°C° 0,7 mm 4 m/S 655 mmHg 80%
    16:00 +8°C° 0,7 mm 3 m/S 655 mmHg 89%
    17:00 +8°C° 1,4 mm 3 m/S 655 mmHg 91%
    18:00 +7°C° 1,4 mm 3 m/S 655 mmHg 93%
    19:00 +5°C° 1,4 mm 3 m/S 655 mmHg 95%
    20:00 +5°C° 2,3 mm 3 m/S 655 mmHg 95%
    21:00 +4°C° 2,3 mm 3 m/S 655 mmHg 95%
    22:00 +4°C° 2,3 mm 2 m/S 655 mmHg 96%
    23:00 +4°C° 0,8 mm 2 m/S 655 mmHg 96%

    28 Oktober, Samstag

    Zeit Temperatur Niederschläge Wind Luftdruck Luftfeuchtigkeit
    00:00 +3°C° 0,8 mm 2 m/S 655 mmHg 96%
    01:00 +3°C° 0,8 mm 2 m/S 655 mmHg 96%
    02:00 +2°C° 0,1 mm 2 m/S 655 mmHg 96%
    03:00 +2°C° 0,1 mm 2 m/S 655 mmHg 96%
    04:00 +2°C° 0,1 mm 2 m/S 655 mmHg 96%
    05:00 +1°C° 0 mm 2 m/S 655 mmHg 96%
    06:00 +1°C° 0 mm 2 m/S 655 mmHg 96%
    07:00 -1°C° 0 mm 2 m/S 655 mmHg 96%
    08:00 +2°C° 0 mm 1 m/S 655 mmHg 91%
    09:00 +4°C° 0 mm 1 m/S 655 mmHg 85%
    10:00 +5°C° 0 mm 1 m/S 655 mmHg 80%
    11:00 +5°C° 0 mm 2 m/S 654 mmHg 75%
    12:00 +5°C° 0 mm 2 m/S 654 mmHg 69%
    13:00 +6°C° 0 mm 2 m/S 653 mmHg 64%
    14:00 +6°C° 0 mm 2 m/S 653 mmHg 67%
    15:00 +5°C° 0 mm 2 m/S 652 mmHg 69%
    16:00 +6°C° 0 mm 1 m/S 651 mmHg 72%
    17:00 +5°C° 0 mm 1 m/S 651 mmHg 78%
    18:00 +3°C° 0 mm 1 m/S 651 mmHg 83%
    19:00 +2°C° 0 mm 1 m/S 651 mmHg 89%
    20:00 +2°C° 0 mm 1 m/S 650 mmHg 90%
    21:00 +1°C° 0 mm 1 m/S 650 mmHg 92%
    22:00 +1°C° 0 mm 1 m/S 650 mmHg 93%
    23:00 +1°C° 0 mm 1 m/S 649 mmHg 91%

    29 Oktober, Sonntag

    Zeit Temperatur Niederschläge Wind Luftdruck Luftfeuchtigkeit
    00:00 +1°C° 0 mm 1 m/S 649 mmHg 90%
    01:00 +2°C° 0 mm 1 m/S 649 mmHg 88%
    02:00 +1°C° 0,1 mm 2 m/S 648 mmHg 87%
    03:00 +1°C° 0,1 mm 2 m/S 648 mmHg 86%
    04:00 +1°C° 0,1 mm 2 m/S 647 mmHg 85%
    05:00 +1°C° 0,6 mm 2 m/S 647 mmHg 86%
    06:00 +1°C° 0,6 mm 2 m/S 646 mmHg 87%
    07:00 -1°C° 0,6 mm 2 m/S 646 mmHg 88%
    08:00 0°C° 2 mm 3 m/S 647 mmHg 89%
    09:00 0°C° 2 mm 3 m/S 647 mmHg 90%
    10:00 0°C° 2 mm 3 m/S 647 mmHg 91%
    11:00 -1°C° 1,1 mm 4 m/S 647 mmHg 90%
    12:00 -1°C° 1,1 mm 4 m/S 648 mmHg 90%
    13:00 -2°C° 1,1 mm 4 m/S 648 mmHg 89%
    14:00 -2°C° 1 mm 4 m/S 648 mmHg 90%
    15:00 -2°C° 1 mm 4 m/S 649 mmHg 91%
    16:00 -3°C° 1 mm 4 m/S 649 mmHg 91%
    17:00 -2°C° 0,8 mm 3 m/S 649 mmHg 92%
    18:00 -2°C° 0,8 mm 3 m/S 650 mmHg 93%
    19:00 -2°C° 0,8 mm 3 m/S 651 mmHg 94%
    20:00 -4°C° 0,7 mm 3 m/S 651 mmHg 94%
    21:00 -4°C° 0,7 mm 3 m/S 651 mmHg 95%
    22:00 -4°C° 0,7 mm 3 m/S 652 mmHg 95%
    23:00 -4°C° 0,6 mm 3 m/S 652 mmHg 95%

    30 Oktober, Montag

    Zeit Temperatur Niederschläge Wind Luftdruck Luftfeuchtigkeit
    00:00 -4°C° 0,6 mm 3 m/S 652 mmHg 95%
    01:00 -4°C° 0,6 mm 3 m/S 652 mmHg 95%
    02:00 -4°C° 0,4 mm 3 m/S 652 mmHg 95%
    03:00 -4°C° 0,4 mm 3 m/S 652 mmHg 95%
    04:00 -4°C° 0,4 mm 3 m/S 653 mmHg 95%
    05:00 -4°C° 0,4 mm 3 m/S 653 mmHg 95%
    06:00 -4°C° 0,4 mm 3 m/S 653 mmHg 95%
    07:00 -4°C° 0,4 mm 3 m/S 653 mmHg 95%
    08:00 -2°C° 0,4 mm 3 m/S 654 mmHg 94%
    09:00 -2°C° 0,4 mm 3 m/S 654 mmHg 93%
    10:00 -1°C° 0,4 mm 3 m/S 654 mmHg 92%
    11:00 -1°C° 0,2 mm 3 m/S 654 mmHg 91%
    12:00 0°C° 0,2 mm 3 m/S 654 mmHg 90%
    13:00 0°C° 0,2 mm 3 m/S 654 mmHg 89%
    14:00 +1°C° 0,3 mm 2 m/S 655 mmHg 90%
    15:00 +1°C° 0,3 mm 2 m/S 655 mmHg 91%
    16:00 +1°C° 0,3 mm 2 m/S 655 mmHg 92%
    17:00 -1°C° 0,1 mm 2 m/S 655 mmHg 93%
    18:00 -2°C° 0,1 mm 2 m/S 655 mmHg 93%
    19:00 -2°C° 0,1 mm 2 m/S 656 mmHg 94%
    20:00 -2°C° 0,1 mm 2 m/S 656 mmHg 93%
    21:00 -2°C° 0,1 mm 2 m/S 656 mmHg 92%
    22:00 -3°C° 0,1 mm 2 m/S 657 mmHg 91%
    23:00 -3°C° 0 mm 2 m/S 657 mmHg 91%
    Mehr zeigen